Location: Unspecified
(51.0950°N, 12.9690°E)
Time: 15:35:33
(UTC+00:00)

CZ-4 R/B - Pass Details

Date: 28 October 2021
Orbit: 579 x 589 km, 97.7° (Epoch: 27 November)

Event Time Altitude Azimuth Distance (km) Brightness Sun altitude
Rises 17:16:14 0° 164° (SSE) 2,797 7.8 -14.2°
Reaches altitude 10° 17:18:22 10° 164° (SSE) 1,901 6.9 -14.5°
Maximum altitude 17:22:30 88° 79° (E) 591 4.4 -15.1°
Drops below altitude 10° 17:26:39 10° 347° (NNW) 1,912 7.2 -15.8°
Sets 17:28:49 0° 347° (NNW) 2,815 8.1 -16.1°
